Date String (YYYY-MM-DD hh:mm:ss) UTC,Instrument flags,Ambient pressure (hPa),Sample flow (lpm),Bypass flow (lpm),Sample temperature (°C),Ambient temperature (°C),ASC tube jacket temperature (°C),LED temperature (°C),Box temperature (°C),Sample RH (%),Span deviation,Mass concentration (μg/m³),Mass concentration (μg/m³),Mass concentration (μg/m³)
DateTimeUTC,F1_M11,P_M11,Q1_M11,Q2_M11,T1_M11,T2_M11,T3_M11,T4_M11,T5_M11,U1_M11,ZSPAN_M11,X2_M11,X0_M11,X1_M11
2023-05-11 01:00:00,,0826.8,4.99,0.00,29.6,27.6,00.0,38.2,31.1,29.0,0000.3,0010.00,0018.95,0008.88
2023-05-11 01:01:00,,0826.8,5.00,0.00,29.6,27.6,00.0,38.2,31.1,29.2,0000.1,0010.26,0019.62,0009.10
2023-05-11 01:02:00,,0826.8,5.01,0.00,29.5,27.6,00.0,38.2,31.1,29.2,0000.3,0010.45,0020.02,0009.27
2023-05-11 01:03:00,,0826.8,5.00,0.00,29.5,27.6,00.0,38.1,31.1,29.2,0000.1,0010.65,0019.73,0009.41
2023-05-11 01:04:00,,0826.8,4.99,0.00,29.5,27.6,00.0,38.1,31.1,29.2,-000.1,0010.78,0019.81,0009.56
2023-05-11 01:05:00,,0826.8,5.00,0.00,29.5,27.7,00.0,38.1,31.2,29.2,-000.1,0010.92,0020.37,0009.66
2023-05-11 01:06:00,,0826.8,5.00,0.00,29.5,27.7,00.0,38.1,31.2,29.1,-000.0,0010.97,0020.70,0009.71
2023-05-11 01:07:00,,0826.8,5.00,0.00,29.5,27.7,00.0,38.1,31.2,29.1,0000.2,0011.00,0019.83,0009.77
2023-05-11 01:08:00,,0826.8,5.00,0.00,29.5,27.7,00.0,38.1,31.2,29.1,0000.4,0011.07,0019.63,0009.84
2023-05-11 01:09:00,,0826.9,4.99,0.00,29.5,27.7,00.0,38.1,31.1,29.1,0000.7,0011.14,0019.48,0009.91
2023-05-11 01:10:00,,0827.0,4.99,0.00,29.5,27.7,00.0,38.1,31.1,29.2,0000.7,0011.24,0019.45,0009.96
2023-05-11 01:11:00,,0826.9,4.99,0.00,29.5,27.6,00.0,38.1,31.1,29.2,0000.9,0011.27,0019.23,0009.99
2023-05-11 01:12:00,,0827.0,5.02,0.00,29.5,27.6,00.0,38.0,31.0,29.2,0001.1,0011.27,0018.90,0010.00
2023-05-11 01:13:00,,0827.0,5.00,0.00,29.4,27.5,00.0,38.0,30.9,29.2,0001.1,0011.35,0018.81,0010.03
2023-05-11 01:14:00,,0827.1,4.99,0.00,29.4,27.4,00.0,38.0,30.9,29.3,0001.1,0011.34,0018.67,0010.03
2023-05-11 01:15:00,,0827.1,5.00,0.00,29.4,27.3,00.0,38.0,30.8,29.4,0001.4,0011.29,0018.55,0010.00
2023-05-11 01:16:00,,0827.1,5.01,0.00,29.3,27.2,00.0,38.0,30.7,29.5,0001.3,0011.25,0018.20,0009.96
2023-05-11 01:17:00,,0827.1,4.99,0.00,29.2,27.1,00.0,37.9,30.7,29.7,0001.3,0011.22,0017.55,0009.95
2023-05-11 01:18:00,,0827.1,5.00,0.00,29.2,27.0,00.0,37.9,30.7,29.8,0001.3,0011.17,0017.47,0009.95
2023-05-11 01:19:00,,0827.1,5.01,0.00,29.2,27.0,00.0,37.9,30.6,29.9,0001.1,0011.20,0017.48,0009.93
2023-05-11 01:20:00,,0827.2,5.01,0.00,29.1,26.9,00.0,37.9,30.6,29.8,0001.0,0011.18,0017.28,0009.91
2023-05-11 01:21:00,,0827.1,4.98,0.00,29.1,26.9,00.0,37.8,30.6,29.8,0001.2,0011.13,0017.25,0009.88
2023-05-11 01:22:00,,0827.2,4.99,0.00,29.1,26.9,00.0,37.8,30.6,29.8,0001.2,0011.09,0016.52,0009.84
2023-05-11 01:23:00,,0827.1,5.01,0.00,29.0,26.9,00.0,37.8,30.6,29.9,0001.1,0011.09,0016.61,0009.80
2023-05-11 01:24:00,,0827.1,5.01,0.00,29.0,26.8,00.0,37.8,30.5,29.9,0000.9,0011.04,0016.59,0009.75
2023-05-11 01:25:00,,0827.1,5.00,0.00,29.0,26.8,00.0,37.7,30.5,29.9,0000.8,0010.96,0016.34,0009.70
2023-05-11 01:26:00,,0827.1,5.00,0.00,29.0,26.8,00.0,37.7,30.4,30.0,0000.7,0010.92,0016.29,0009.66
2023-05-11 01:27:00,,0827.1,5.01,0.00,28.9,26.7,00.0,37.7,30.4,30.1,0000.6,0010.87,0016.22,0009.64
2023-05-11 01:28:00,,0827.1,5.00,0.00,28.9,26.7,00.0,37.6,30.4,30.1,0000.8,0010.81,0016.09,0009.61
2023-05-11 01:29:00,,0827.0,4.99,0.00,28.9,26.6,00.0,37.6,30.4,30.2,0000.9,0010.72,0015.85,0009.54
2023-05-11 01:30:00,,0827.1,5.00,0.00,28.8,26.6,00.0,37.6,30.3,30.1,0000.9,0010.59,0015.65,0009.45
2023-05-11 01:31:00,,0827.0,5.00,0.00,28.8,26.6,00.0,37.6,30.3,30.1,0000.9,0010.50,0015.59,0009.34
2023-05-11 01:32:00,,0827.1,5.01,0.00,28.8,26.6,00.0,37.5,30.3,30.0,0000.9,0010.41,0015.94,0009.22
2023-05-11 01:33:00,,0827.1,4.99,0.00,28.7,26.5,00.0,37.5,30.3,29.9,0000.8,0010.24,0015.85,0009.10
2023-05-11 01:34:00,,0827.1,4.98,0.00,28.7,26.5,00.0,37.5,30.2,29.8,0000.7,0010.06,0015.50,0008.97
2023-05-11 01:35:00,,0827.1,5.00,0.00,28.7,26.4,00.0,37.4,30.2,29.8,0000.7,0009.91,0015.29,0008.86
2023-05-11 01:36:00,,0827.1,5.01,0.00,28.7,26.4,00.0,37.4,30.2,29.8,0000.9,0009.83,0015.46,0008.76
2023-05-11 01:37:00,,0827.1,4.99,0.00,28.6,26.4,00.0,37.4,30.2,29.8,0001.0,0009.76,0015.46,0008.67
2023-05-11 01:38:00,,0827.1,5.00,0.00,28.6,26.4,00.0,37.3,30.2,29.7,0001.3,0009.65,0015.29,0008.56
2023-05-11 01:39:00,,0827.0,5.01,0.00,28.6,26.4,00.0,37.3,30.1,29.7,0001.2,0009.55,0015.15,0008.43
2023-05-11 01:40:00,,0827.0,4.98,0.00,28.6,26.4,00.0,37.3,30.1,29.7,0001.3,0009.44,0015.04,0008.33
2023-05-11 01:41:00,,0827.0,5.01,0.00,28.6,26.4,00.0,37.3,30.1,29.7,0001.5,0009.31,0014.82,0008.22
2023-05-11 01:42:00,,0827.0,5.00,0.00,28.5,26.4,00.0,37.2,30.1,29.5,0001.2,0009.16,0014.56,0008.12
2023-05-11 01:43:00,,0826.9,4.99,0.00,28.5,26.4,00.0,37.2,30.1,29.2,0001.1,0008.99,0013.83,0007.99
2023-05-11 01:44:00,,0827.0,5.02,0.00,28.5,26.5,00.0,37.2,30.1,29.1,0001.1,0008.86,0013.44,0007.87
2023-05-11 01:45:00,,0826.9,5.00,0.00,28.5,26.5,00.0,37.2,30.1,29.3,0001.2,0008.78,0013.71,0007.79
2023-05-11 01:46:00,,0826.9,4.99,0.00,28.5,26.5,00.0,37.1,30.1,29.5,0001.3,0008.73,0013.73,0007.73
2023-05-11 01:47:00,,0826.8,5.00,0.00,28.5,26.6,00.0,37.1,30.1,29.4,0001.3,0008.65,0013.40,0007.63
2023-05-11 01:48:00,,0826.8,5.01,0.00,28.5,26.6,00.0,37.1,30.1,29.2,0000.9,0008.49,0013.25,0007.48
2023-05-11 01:49:00,,0826.8,5.01,0.00,28.5,26.6,00.0,37.1,30.1,29.1,0000.6,0008.36,0013.63,0007.33
2023-05-11 01:50:00,,0826.6,5.01,0.00,28.5,26.6,00.0,37.1,30.1,29.1,0000.6,0008.19,0013.95,0007.19
2023-05-11 01:51:00,,0826.6,5.00,0.00,28.5,26.6,00.0,37.1,30.1,28.9,0000.3,0008.03,0013.94,0006.99
2023-05-11 01:52:00,,0826.5,5.00,0.00,28.5,26.7,00.0,37.1,30.1,28.6,0000.0,0007.78,0013.91,0006.73
2023-05-11 01:53:00,,0826.4,5.00,0.00,28.5,26.7,00.0,37.0,30.1,28.5,0000.1,0007.61,0013.84,0006.50
2023-05-11 01:54:00,,0826.4,4.99,0.00,28.5,26.7,00.0,37.0,30.1,28.3,0000.0,0007.43,0013.69,0006.28
2023-05-11 01:55:00,,0826.3,4.99,0.00,28.5,26.7,00.0,37.0,30.0,28.0,0000.0,0007.23,0013.55,0006.02
2023-05-11 01:56:00,,0826.2,5.00,0.00,28.5,26.7,00.0,37.0,30.0,27.8,-000.0,0006.96,0012.90,0005.72
2023-05-11 01:57:00,,0826.2,5.01,0.00,28.4,26.6,00.0,37.0,30.0,27.7,-000.1,0006.66,0012.59,0005.40
2023-05-11 01:58:00,,0825.9,5.00,0.00,28.4,26.6,00.0,37.0,30.0,27.4,-000.3,0006.37,0012.67,0005.12
2023-05-11 01:59:00,,0825.9,5.00,0.00,28.4,26.6,00.0,37.0,30.0,27.2,0000.3,0006.12,0012.66,0004.87
